Total_Precipitation_Accumulation
0.12 0.12 0.13 0.15 0.13 0.11 0.11 0.10 0.10 0.08 0.08 0.09 0.07 0.06 0.09 0.10 0.07 0.06 0.07 0.07 0.04 0.07 0.08 0.03 0.05 0.05 0.02 0.03 0.02 0.00 0.00 0.01 0.00 0.00 0.00 0.00 0.00 0.00 0.00 0.00 0.00 0.00 0.00 0.00 0.00 0.00 0.00 0.00 0.00 0.00 0.00 0.00 0.00 0.00 0.00 0.00 0.00 0.00 0.12 0.34 0.23 0.15 0.17 0.12 0.33 0.12 0.02 0.04 0.02 0.12 0.02 0.00 0.03 0.02 0.01 0.00 0.00 0.03 0.04 0.03 0.12 0.15 0.24 0.37 0.38 0.61 0.45 0.65
0.14 0.13 0.14 0.16 0.13 0.12 0.11 0.10 0.09 0.09 0.08 0.06 0.07 0.07 0.08 0.07 0.10 0.09 0.07 0.07 0.08 0.04 0.04 0.08 0.03 0.02 0.03 0.02 0.01 0.01 0.01 0.00 0.00 0.00 0.00 0.00 0.00 0.00 0.00 0.00 0.00 0.00 0.00 0.00 0.00 0.00 0.00 0.00 0.00 0.00 0.00 0.00 0.00 0.00 0.00 0.00 0.00 0.00 0.09 0.28 0.44 0.22 0.10 0.24 0.02 0.00 0.02 0.00 0.02 0.08 0.11 0.00 0.00 0.01 0.00 0.02 0.02 0.02 0.07 0.06 0.16 0.24 0.35 0.44 0.69 1.07 1.45 1.77
0.13 0.15 0.13 0.14 0.13 0.12 0.10 0.09 0.09 0.08 0.07 0.07 0.07 0.10 0.09 0.06 0.08 0.10 0.07 0.06 0.05 0.04 0.05 0.04 0.06 0.03 0.01 0.04 0.01 0.01 0.01 0.00 0.00 0.00 0.01 0.00 0.00 0.00 0.00 0.00 0.00 0.00 0.00 0.00 0.00 0.00 0.00 0.00 0.00 0.00 0.00 0.00 0.00 0.00 0.00 0.00 0.00 0.01 0.05 0.28 0.06 0.08 0.07 0.03 0.00 0.00 0.00 0.00 0.03 0.00 0.00 0.00 0.00 0.00 0.00 0.16 0.04 0.00 0.03 0.11 0.16 0.24 0.45 0.46 0.55 1.52 2.05 2.45
0.12 0.13 0.15 0.14 0.13 0.12 0.10 0.10 0.08 0.07 0.09 0.09 0.09 0.09 0.09 0.08 0.06 0.08 0.10 0.07 0.03 0.07 0.06 0.03 0.02 0.04 0.03 0.01 0.02 0.01 0.00 0.00 0.00 0.00 0.00 0.00 0.00 0.00 0.00 0.00 0.00 0.00 0.00 0.00 0.00 0.00 0.00 0.00 0.00 0.00 0.00 0.00 0.00 0.00 0.00 0.00 0.01 0.01 0.05 0.16 0.06 0.03 0.04 0.01 0.11 0.00 0.00 0.01 0.00 0.00 0.00 0.00 0.00 0.00 0.01 0.03 0.08 0.08 0.04 0.14 0.14 0.17 0.28 0.41 0.66 1.68 1.34 2.06
0.12 0.14 0.14 0.12 0.12 0.12 0.11 0.09 0.10 0.09 0.08 0.08 0.09 0.09 0.09 0.06 0.08 0.07 0.07 0.07 0.05 0.07 0.05 0.04 0.03 0.01 0.05 0.05 0.01 0.00 0.00 0.00 0.02 0.00 0.00 0.00 0.00 0.00 0.00 0.00 0.00 0.00 0.00 0.00 0.00 0.00 0.00 0.00 0.00 0.00 0.00 0.00 0.00 0.00 0.00 0.00 0.00 0.01 0.06 0.03 0.03 0.02 0.09 0.02 0.00 0.00 0.00 0.01 0.00 0.00 0.00 0.02 0.00 0.06 0.05 0.20 0.16 0.27 0.31 0.10 0.15 0.17 0.20 0.56 0.90 0.50 0.62 1.18
0.12 0.14 0.14 0.14 0.12 0.13 0.11 0.09 0.09 0.08 0.07 0.07 0.08 0.09 0.06 0.09 0.07 0.07 0.06 0.06 0.08 0.05 0.05 0.04 0.05 0.02 0.04 0.03 0.00 0.00 0.00 0.00 0.00 0.00 0.00 0.00 0.00 0.00 0.00 0.00 0.00 0.00 0.00 0.00 0.00 0.00 0.00 0.00 0.00 0.00 0.00 0.00 0.00 0.00 0.00 0.00 0.03 0.12 0.00 0.03 0.01 0.09 0.02 0.00 0.00 0.00 0.00 0.02 0.11 0.03 0.01 0.00 0.02 0.01 0.01 0.04 0.07 0.28 0.03 0.00 0.03 0.07 0.09 0.37 1.23 0.59 1.22 2.15
0.13 0.12 0.12 0.12 0.12 0.12 0.11 0.10 0.09 0.07 0.06 0.07 0.08 0.07 0.08 0.10 0.07 0.08 0.07 0.07 0.05 0.06 0.04 0.05 0.03 0.04 0.03 0.01 0.00 0.01 0.01 0.00 0.00 0.00 0.00 0.00 0.00 0.00 0.00 0.00 0.00 0.00 0.00 0.00 0.00 0.00 0.00 0.00 0.00 0.00 0.00 0.00 0.00 0.00 0.00 0.00 0.00 0.02 0.05 0.05 0.02 0.00 0.04 0.02 0.00 0.00 0.02 0.08 0.02 0.00 0.00 0.00 0.00 0.06 0.00 0.04 0.01 0.02 0.02 0.01 0.02 0.07 0.15 0.13 0.62 1.67 1.63 2.62
0.14 0.12 0.12 0.12 0.12 0.11 0.10 0.10 0.08 0.06 0.07 0.08 0.08 0.07 0.08 0.06 0.08 0.07 0.06 0.06 0.05 0.04 0.06 0.06 0.03 0.01 0.06 0.03 0.01 0.00 0.02 0.00 0.00 0.00 0.00 0.00 0.00 0.00 0.00 0.00 0.00 0.00 0.00 0.00 0.00 0.00 0.00 0.00 0.00 0.00 0.00 0.02 0.00 0.00 0.01 0.01 0.00 0.02 0.06 0.01 0.01 0.01 0.00 0.01 0.01 0.02 0.00 0.00 0.00 0.00 0.01 0.01 0.01 0.00 0.01 0.06 0.03 0.01 0.03 0.02 0.06 0.13 0.17 0.35 0.27 0.26 1.20 2.10
0.14 0.12 0.14 0.12 0.11 0.09 0.08 0.08 0.07 0.09 0.07 0.07 0.06 0.07 0.06 0.05 0.05 0.05 0.05 0.06 0.04 0.03 0.05 0.04 0.04 0.03 0.04 0.11 0.08 0.04 0.00 0.00 0.00 0.00 0.00 0.00 0.00 0.00 0.00 0.00 0.00 0.00 0.00 0.00 0.00 0.00 0.00 0.00 0.00 0.00 0.00 0.00 0.00 0.02 0.03 0.01 0.03 0.00 0.00 0.00 0.01 0.01 0.02 0.01 0.01 0.00 0.00 0.00 0.00 0.03 0.02 0.01 0.01 0.00 0.07 0.09 0.06 0.03 0.03 0.05 0.05 0.22 0.32 0.23 0.31 0.27 0.33 1.22
0.14 0.14 0.13 0.12 0.08 0.08 0.07 0.08 0.08 0.09 0.11 0.08 0.08 0.06 0.06 0.04 0.04 0.05 0.04 0.04 0.05 0.05 0.03 0.05 0.04 0.08 0.10 0.12 0.06 0.04 0.00 0.00 0.00 0.00 0.00 0.00 0.00 0.00 0.00 0.00 0.00 0.00 0.00 0.00 0.00 0.00 0.00 0.00 0.00 0.00 0.00 0.00 0.00 0.05 0.00 0.07 0.07 0.00 0.00 0.02 0.02 0.01 0.03 0.01 0.01 0.01 0.01 0.00 0.00 0.03 0.02 0.02 0.00 0.00 0.06 0.21 0.15 0.11 0.07 0.12 0.20 0.26 0.45 0.25 0.21 0.40 0.59 0.45
0.12 0.12 0.10 0.11 0.11 0.07 0.09 0.06 0.08 0.08 0.09 0.06 0.06 0.06 0.04 0.04 0.03 0.02 0.04 0.03 0.05 0.05 0.06 0.02 0.11 0.09 0.18 0.21 0.11 0.01 0.00 0.00 0.00 0.00 0.00 0.00 0.00 0.00 0.00 0.00 0.00 0.00 0.00 0.00 0.00 0.00 0.00 0.00 0.00 0.00 0.00 0.00 0.00 0.00 0.01 0.00 0.00 0.00 0.01 0.01 0.00 0.01 0.03 0.04 0.03 0.03 0.00 0.00 0.02 0.01 0.01 0.01 0.01 0.12 0.02 0.08 0.20 0.41 0.15 0.11 0.13 0.28 0.28 0.28 0.28 0.26 0.27 0.29
0.12 0.11 0.11 0.07 0.12 0.08 0.06 0.06 0.09 0.07 0.05 0.07 0.06 0.03 0.05 0.03 0.04 0.02 0.03 0.03 0.03 0.06 0.04 0.04 0.04 0.30 0.13 0.17 0.15 0.00 0.00 0.00 0.00 0.00 0.00 0.00 0.00 0.00 0.00 0.00 0.00 0.00 0.00 0.00 0.00 0.00 0.00 0.00 0.00 0.00 0.00 0.00 0.07 0.01 0.00 0.00 0.12 0.01 0.00 0.13 0.04 0.01 0.09 0.01 0.03 0.00 0.00 0.01 0.01 0.00 0.01 0.05 0.01 0.06 0.01 0.01 0.32 0.33 0.31 0.27 0.12 0.22 0.27 0.23 0.31 0.33 0.32 0.26
0.10 0.13 0.12 0.11 0.09 0.11 0.07 0.08 0.08 0.08 0.04 0.05 0.04 0.03 0.02 0.02 0.03 0.03 0.03 0.02 0.02 0.04 0.03 0.06 0.07 0.13 0.40 0.35 0.01 0.00 0.00 0.00 0.00 0.00 0.00 0.00 0.00 0.00 0.00 0.00 0.00 0.00 0.00 0.00 0.00 0.00 0.00 0.00 0.00 0.00 0.00 0.00 0.01 0.04 0.00 0.03 0.05 0.01 0.03 0.14 0.00 0.03 0.05 0.02 0.00 0.00 0.00 0.00 0.00 0.00 0.41 0.16 0.12 0.03 0.03 0.05 0.05 0.07 0.06 0.31 0.17 0.17 0.26 0.28 0.31 0.44 0.45 0.53
0.11 0.12 0.11 0.12 0.08 0.08 0.10 0.08 0.05 0.06 0.05 0.03 0.03 0.03 0.02 0.01 0.03 0.02 0.02 0.02 0.03 0.03 0.08 0.03 0.23 0.20 0.38 0.06 0.00 0.00 0.00 0.00 0.00 0.00 0.00 0.00 0.00 0.00 0.00 0.00 0.00 0.00 0.00 0.00 0.00 0.00 0.00 0.00 0.00 0.00 0.00 0.00 0.00 0.00 0.01 0.06 0.00 0.12 0.11 0.00 0.17 0.04 0.24 0.00 0.00 0.02 0.02 0.02 0.01 0.00 0.22 0.26 0.22 0.08 0.05 0.05 0.03 0.02 0.09 0.11 0.14 0.26 0.36 0.31 0.35 0.55 0.43 0.57
0.10 0.10 0.09 0.10 0.09 0.09 0.11 0.08 0.08 0.05 0.05 0.05 0.02 0.02 0.01 0.01 0.01 0.02 0.02 0.02 0.03 0.02 0.03 0.11 0.10 0.25 0.32 0.01 0.00 0.00 0.00 0.00 0.00 0.00 0.00 0.00 0.00 0.00 0.00 0.00 0.00 0.00 0.00 0.00 0.00 0.00 0.00 0.00 0.00 0.00 0.00 0.00 0.00 0.00 0.00 0.03 0.08 0.06 0.06 0.19 0.31 0.10 0.48 0.12 0.02 0.00 0.04 0.04 0.00 0.00 0.25 0.31 0.27 0.29 0.09 0.07 0.06 0.03 0.05 0.08 0.25 0.31 0.17 0.27 0.41 0.73 0.66 0.54
0.12 0.11 0.09 0.08 0.07 0.08 0.08 0.11 0.06 0.05 0.06 0.07 0.03 0.02 0.01 0.01 0.01 0.00 0.00 0.01 0.01 0.03 0.07 0.08 0.08 0.06 0.06 0.02 0.04 0.00 0.00 0.00 0.00 0.00 0.00 0.00 0.00 0.00 0.00 0.00 0.00 0.00 0.00 0.00 0.00 0.00 0.00 0.00 0.00 0.00 0.00 0.00 0.00 0.01 0.07 0.09 0.13 0.13 0.09 0.21 0.13 0.16 0.36 0.08 0.02 0.00 0.01 0.01 0.00 0.00 0.36 0.27 0.23 0.18 0.12 0.14 0.07 0.16 0.13 0.15 0.27 0.19 0.35 0.43 0.55 0.25 0.31 0.63
0.12 0.12 0.09 0.07 0.07 0.06 0.07 0.07 0.06 0.05 0.05 0.05 0.02 0.00 0.01 0.00 0.00 0.00 0.01 0.02 0.03 0.04 0.11 0.03 0.02 0.05 0.14 0.00 0.00 0.00 0.00 0.02 0.00 0.00 0.00 0.00 0.00 0.00 0.00 0.00 0.00 0.00 0.00 0.00 0.00 0.00 0.00 0.00 0.00 0.00 0.00 0.00 0.00 0.07 0.12 0.16 0.26 0.25 0.24 0.19 0.15 0.18 0.29 0.23 0.09 0.01 0.02 0.00 0.08 0.01 0.06 0.12 0.28 0.10 0.09 0.14 0.10 0.13 0.25 0.37 0.40 0.47 0.25 0.73 0.27 0.47 0.38 0.52
0.09 0.08 0.08 0.06 0.05 0.05 0.07 0.06 0.07 0.08 0.05 0.05 0.03 0.01 0.01 0.00 0.01 0.00 0.02 0.02 0.02 0.01 0.02 0.01 0.04 0.31 0.13 0.00 0.01 0.01 0.00 0.00 0.00 0.01 0.00 0.00 0.00 0.00 0.00 0.00 0.00 0.00 0.00 0.00 0.00 0.00 0.00 0.00 0.00 0.00 0.03 0.02 0.01 0.13 0.12 0.31 0.24 0.27 0.18 0.24 0.22 0.13 0.08 0.12 0.17 0.23 0.00 0.02 0.02 0.03 0.08 0.08 0.17 0.17 0.10 0.06 0.11 0.07 0.13 0.19 0.26 0.39 0.74 0.26 0.21 0.59 0.54 0.45
0.11 0.08 0.07 0.05 0.05 0.05 0.06 0.06 0.07 0.07 0.06 0.04 0.01 0.01 0.00 0.01 0.02 0.03 0.01 0.03 0.06 0.13 0.25 0.11 0.13 0.14 0.06 0.02 0.00 0.00 0.00 0.00 0.00 0.00 0.00 0.00 0.00 0.00 0.00 0.00 0.00 0.00 0.04 0.00 0.08 0.00 0.03 0.00 0.00 0.03 0.17 0.10 0.12 0.03 0.04 0.03 0.02 0.06 0.04 0.05 0.04 0.10 0.29 0.28 0.10 0.08 0.07 0.10 0.05 0.07 0.11 0.16 0.20 0.12 0.14 0.11 0.11 0.11 0.13 0.24 0.42 0.30 0.32 0.54 0.55 0.70 0.61 0.46
0.09 0.11 0.08 0.10 0.07 0.05 0.08 0.06 0.04 0.04 0.05 0.05 0.02 0.04 0.01 0.04 0.13 0.09 0.03 0.03 0.02 0.00 0.00 0.00 0.01 0.00 0.00 0.00 0.00 0.01 0.00 0.00 0.00 0.01 0.00 0.00 0.00 0.00 0.00 0.00 0.00 0.00 0.00 0.06 0.02 0.01 0.00 0.07 0.06 0.10 0.08 0.04 0.02 0.01 0.03 0.02 0.01 0.00 0.01 0.04 0.06 0.06 0.10 0.03 0.08 0.02 0.01 0.04 0.02 0.07 0.07 0.06 0.15 0.13 0.14 0.12 0.11 0.13 0.21 0.37 0.31 0.43 0.41 0.32 0.24 0.34 0.65 0.79
0.11 0.09 0.09 0.07 0.07 0.07 0.07 0.11 0.13 0.07 0.10 0.10 0.04 0.03 0.04 0.06 0.07 0.08 0.10 0.10 0.05 0.01 0.02 0.00 0.01 0.00 0.00 0.00 0.00 0.00 0.00 0.00 0.00 0.00 0.00 0.01 0.00 0.00 0.03 0.00 0.00 0.02 0.01 0.00 0.02 0.02 0.02 0.04 0.18 0.06 0.01 0.03 0.04 0.02 0.03 0.03 0.05 0.06 0.07 0.05 0.06 0.10 0.32 0.05 0.03 0.05 0.03 0.04 0.14 0.01 0.03 0.02 0.08 0.15 0.36 0.07 0.10 0.09 0.09 0.17 0.28 0.57 0.66 0.48 0.32 0.39 0.59 1.25
0.10 0.08 0.09 0.12 0.09 0.12 0.08 0.05 0.04 0.10 0.10 0.07 0.06 0.03 0.04 0.04 0.05 0.10 0.33 0.14 0.01 0.00 0.00 0.00 0.00 0.00 0.00 0.00 0.00 0.00 0.00 0.00 0.02 0.00 0.00 0.00 0.03 0.01 0.02 0.01 0.01 0.03 0.02 0.01 0.03 0.08 0.07 0.26 0.05 0.03 0.01 0.04 0.04 0.04 0.03 0.06 0.05 0.04 0.08 0.09 0.03 0.19 0.08 0.01 0.01 0.01 0.06 0.03 0.16 0.03 0.06 0.06 0.21 0.13 0.10 0.13 0.09 0.13 0.13 0.16 0.26 0.25 0.39 0.44 0.35 0.41 0.68 1.08
0.08 0.10 0.11 0.14 0.14 0.09 0.06 0.07 0.03 0.04 0.08 0.03 0.03 0.03 0.06 0.02 0.01 0.04 0.19 0.23 0.08 0.00 0.00 0.00 0.00 0.00 0.00 0.00 0.00 0.00 0.00 0.00 0.04 0.02 0.06 0.01 0.01 0.00 0.01 0.03 0.03 0.05 0.08 0.08 0.15 0.12 0.21 0.11 0.06 0.07 0.13 0.07 0.04 0.03 0.05 0.08 0.03 0.02 0.11 0.15 0.20 0.16 0.13 0.42 0.10 0.08 0.07 0.07 0.11 0.08 0.03 0.38 0.19 0.31 0.36 0.27 0.23 0.18 0.23 0.09 0.51 0.32 0.33 0.55 0.53 0.89 0.83 0.81
0.06 0.09 0.09 0.13 0.08 0.09 0.05 0.09 0.06 0.03 0.05 0.05 0.06 0.05 0.03 0.02 0.03 0.14 0.39 0.44 0.05 0.00 0.00 0.00 0.00 0.00 0.00 0.00 0.00 0.00 0.00 0.03 0.00 0.03 0.04 0.02 0.01 0.08 0.03 0.15 0.28 0.03 0.10 0.21 0.10 0.13 0.18 0.22 0.20 0.10 0.06 0.01 0.05 0.08 0.17 0.12 0.19 0.05 0.05 0.08 0.08 0.07 0.18 0.06 0.26 0.06 0.01 0.01 0.01 0.04 0.10 0.14 0.15 0.15 0.17 0.08 0.05 0.16 0.13 0.17 0.21 0.33 0.48 1.11 0.98 1.08 0.95 0.78
0.06 0.08 0.10 0.08 0.10 0.30 0.11 0.05 0.02 0.10 0.02 0.02 0.19 0.09 0.02 0.02 0.07 0.11 0.21 0.14 0.01 0.00 0.00 0.00 0.00 0.00 0.02 0.00 0.00 0.00 0.00 0.00 0.01 0.01 0.04 0.00 0.03 0.05 0.10 0.07 0.03 0.09 0.08 0.20 0.25 0.13 0.16 0.04 0.05 0.13 0.08 0.03 0.03 0.15 0.07 0.06 0.15 0.09 0.03 0.01 0.02 0.02 0.03 0.02 0.03 0.06 0.17 0.29 0.04 0.14 0.45 0.72 0.21 0.21 0.14 0.15 0.19 0.20 0.19 0.15 0.36 0.46 0.19 0.46 0.46 0.56 0.56 0.52
0.07 0.08 0.10 0.11 0.15 0.17 0.23 0.05 0.07 0.03 0.07 0.13 0.10 0.09 0.14 0.14 0.03 0.04 0.17 0.27 0.40 0.15 0.01 0.24 0.03 0.39 0.04 0.10 0.03 0.01 0.00 0.02 0.02 0.06 0.10 0.16 0.01 0.07 0.05 0.21 0.09 0.20 0.09 0.28 0.19 0.13 0.09 0.10 0.08 0.10 0.13 0.12 0.10 0.12 0.05 0.11 0.13 0.24 0.26 0.03 0.03 0.03 0.02 0.03 0.06 0.09 0.40 0.40 0.67 0.05 0.40 0.57 0.18 0.32 0.21 0.10 0.27 0.32 0.40 0.28 0.44 0.57 0.41 0.30 0.38 0.77 0.94 0.99
0.12 0.13 0.12 0.15 0.11 0.28 0.16 0.15 0.08 0.06 0.10 0.18 0.03 0.02 0.07 0.12 0.03 0.05 0.57 0.42 0.37 0.12 0.23 0.05 0.12 0.32 0.07 0.12 0.05 0.04 0.34 0.33 0.01 0.03 0.12 0.25 0.11 0.10 0.11 0.16 0.22 0.12 0.21 0.27 0.18 0.82 0.07 0.11 0.06 0.05 0.07 0.10 0.21 0.24 0.04 0.08 0.14 0.28 0.07 0.06 0.04 0.04 0.03 0.09 0.09 0.12 0.31 0.02 0.02 0.04 0.12 0.50 0.44 0.46 0.19 0.19 0.14 0.32 0.52 0.47 0.27 0.42 0.44 0.55 0.50 0.59 0.54 1.28
0.06 0.13 0.14 0.11 0.20 0.88 0.50 0.26 0.07 0.14 0.07 0.19 0.14 0.23 0.08 0.13 0.14 0.35 0.49 0.26 0.21 0.18 0.55 0.28 0.15 0.21 0.30 0.14 0.04 0.08 0.07 0.04 0.36 0.28 0.20 0.12 0.00 0.21 0.10 0.22 0.24 0.20 0.51 0.23 0.45 0.25 0.05 0.04 0.02 0.05 0.07 0.09 0.15 0.14 0.14 0.08 0.05 0.15 0.05 0.05 0.09 0.06 0.10 0.04 0.05 0.13 0.22 0.18 0.41 0.25 0.19 0.32 0.40 0.53 0.17 0.27 0.21 0.30 0.24 0.12 0.37 0.54 0.56 0.70 0.70 0.51 0.58 0.81
0.05 0.08 0.13 0.12 0.15 0.17 0.19 0.19 0.16 0.11 0.19 0.15 0.17 0.13 0.22 0.25 0.23 0.42 0.93 0.41 0.74 0.40 0.06 1.03 0.09 0.35 0.18 0.11 0.12 0.06 0.03 0.08 0.32 0.41 0.25 0.02 0.03 0.11 0.24 0.13 0.09 0.09 0.14 0.13 0.22 0.11 0.07 0.05 0.15 0.19 0.09 0.21 0.04 0.12 0.27 0.25 0.08 0.03 0.03 0.05 0.03 0.03 0.03 0.04 0.12 0.12 0.29 0.25 0.42 0.32 0.30 0.43 0.34 0.44 0.35 0.40 0.19 0.50 0.71 0.65 0.79 0.71 0.40 0.84 0.42 0.61 0.48 0.90
0.18 0.10 0.15 0.20 0.18 0.08 0.19 0.17 0.23 0.24 0.10 0.20 0.11 0.12 0.17 0.39 0.68 0.60 0.61 0.30 0.76 0.81 0.22 0.53 0.74 0.56 0.27 0.38 0.23 0.12 0.34 0.16 0.30 0.11 0.03 0.35 0.12 0.04 0.06 0.19 0.23 0.08 0.11 0.17 0.17 0.09 0.10 0.04 0.06 0.16 0.09 0.04 0.03 0.08 0.03 0.17 0.03 0.13 0.07 0.04 0.17 0.09 0.12 0.06 0.19 0.15 0.32 0.50 0.18 0.14 0.37 0.64 0.47 0.49 0.54 0.57 0.66 0.40 0.64 0.48 0.44 0.35 0.49 0.46 0.47 0.58 0.62 0.76
0.04 0.07 0.09 0.29 0.36 0.21 0.13 0.12 0.45 0.05 0.11 0.13 0.13 0.17 0.26 0.59 0.81 0.43 0.31 0.41 0.65 0.74 0.18 0.40 0.52 0.26 0.40 0.52 0.37 0.15 0.08 0.15 0.17 0.06 0.29 0.08 0.43 0.28 0.21 0.37 0.12 0.17 0.21 0.12 0.21 0.17 0.11 0.28 0.13 0.04 0.02 0.09 0.01 0.03 0.01 0.03 0.04 0.06 0.21 0.22 0.21 0.49 0.19 0.23 0.35 0.40 0.59 0.50 0.26 0.30 0.12 0.52 0.40 0.81 0.39 0.58 0.84 0.52 0.44 0.43 0.22 0.41 0.31 0.23 0.31 0.43 0.65 0.70
0.04 0.13 0.10 0.37 0.11 0.19 0.23 0.10 0.19 0.13 0.13 0.13 0.17 0.24 0.54 0.85 0.60 0.59 0.29 0.07 0.66 1.36 0.70 0.53 0.57 0.37 0.32 0.20 0.27 0.20 0.29 0.12 0.07 0.04 0.18 0.23 0.26 0.30 0.82 0.43 0.31 0.39 0.34 0.30 0.41 0.06 0.23 0.25 0.11 0.08 0.03 0.03 0.06 0.09 0.10 0.02 0.04 0.09 0.25 0.51 0.50 0.85 0.58 0.70 0.56 0.68 0.80 0.47 0.32 0.10 0.22 0.22 0.46 0.70 0.34 0.37 0.33 0.40 0.34 0.24 0.24 0.15 0.20 0.41 0.31 0.35 0.52 0.61
0.11 0.09 0.10 0.21 0.27 0.21 0.12 0.14 0.32 0.38 0.12 0.25 0.28 0.50 0.66 0.56 0.42 0.33 0.39 0.29 1.38 1.01 0.87 0.21 0.39 0.28 0.41 0.34 0.33 0.16 0.05 0.25 0.10 0.21 0.13 0.25 0.34 0.24 0.42 0.23 0.31 0.48 0.37 0.34 0.17 0.07 0.27 0.12 0.03 0.11 0.22 0.18 0.09 0.13 0.35 0.20 0.11 0.11 0.24 0.46 0.62 0.93 0.71 0.47 0.51 0.35 0.39 0.25 0.15 0.34 0.18 0.25 0.53 0.43 0.19 0.30 0.40 0.33 0.38 0.22 0.25 0.21 0.29 0.24 0.28 0.54 0.99 1.46
0.06 0.06 0.13 0.08 0.08 0.15 0.31 0.37 0.38 0.23 0.25 0.37 0.31 0.52 0.80 0.54 0.28 0.16 0.29 0.41 0.68 0.46 0.51 0.28 0.36 0.15 0.31 0.51 0.40 0.09 0.30 0.22 0.11 0.37 0.18 0.42 0.33 0.52 0.47 0.42 0.29 0.30 0.26 0.26 0.28 0.16 0.52 0.61 0.29 0.07 0.30 0.11 0.09 0.08 0.17 0.20 0.27 0.17 0.04 0.36 0.52 0.58 0.98 0.52 0.52 0.51 0.37 0.52 0.31 0.22 0.09 0.43 0.50 1.59 0.18 0.23 0.27 0.33 0.27 0.35 0.35 0.32 0.36 0.35 0.64 0.68 0.48 0.46
0.08 0.18 0.19 0.34 0.06 0.09 0.50 0.36 0.14 0.23 0.38 0.40 0.34 0.55 0.45 0.34 0.32 0.43 0.47 0.45 0.42 0.38 0.47 0.21 0.19 0.24 0.37 0.41 0.42 0.52 0.33 0.44 0.16 0.33 0.28 0.42 0.62 0.32 0.35 0.23 0.17 0.20 0.33 0.26 0.34 0.17 0.21 0.23 0.16 0.04 0.12 0.09 0.15 0.18 0.13 0.38 0.23 0.10 0.14 0.12 0.39 0.81 0.30 0.66 0.56 0.32 0.45 0.29 0.21 0.35 0.15 0.52 1.07 0.64 0.24 0.18 0.11 0.16 0.12 0.11 0.14 0.24 0.45 0.37 0.37 0.23 0.27 0.36
0.04 0.09 0.04 0.11 0.24 0.48 0.23 0.40 0.18 0.19 0.28 0.35 0.36 0.45 0.49 0.27 0.74 0.38 0.68 0.41 0.53 0.71 0.56 0.29 0.26 0.36 0.49 0.75 0.91 1.08 0.30 0.41 0.24 0.24 0.31 0.32 0.23 0.39 0.19 0.13 0.09 0.12 0.30 0.28 0.41 0.60 0.17 0.34 0.05 0.06 0.10 0.15 0.13 0.12 0.24 0.16 0.74 0.70 0.14 0.46 0.35 0.16 0.24 0.43 0.26 0.13 0.15 0.32 0.45 0.22 0.41 0.44 0.20 0.41 0.36 0.41 0.25 0.19 0.28 0.30 0.34 0.34 0.36 0.26 0.28 0.31 0.42 0.30
0.12 0.08 0.31 0.23 0.13 0.22 0.14 0.18 0.24 0.16 0.19 0.32 0.41 0.32 0.19 0.22 0.19 0.32 0.51 0.53 0.54 0.64 0.73 0.85 0.58 0.52 0.66 0.74 0.81 0.45 0.57 0.33 0.40 0.35 0.59 0.30 0.41 0.13 0.12 0.26 0.07 0.24 0.17 0.31 0.42 0.29 0.58 0.46 0.10 0.14 0.42 0.12 0.14 0.14 0.22 0.22 0.21 0.50 0.45 0.43 0.10 0.09 0.21 0.38 0.71 0.35 0.29 0.32 0.34 0.22 0.38 0.56 0.38 1.46 0.44 0.50 0.24 0.19 0.28 0.35 0.38 0.38 0.36 0.39 0.64 0.46 0.51 0.57
0.38 0.12 0.22 0.44 0.23 0.18 0.21 0.34 0.22 0.38 0.33 0.32 0.25 0.15 0.10 0.31 0.12 0.25 0.30 0.42 0.41 0.57 0.77 0.67 0.74 0.66 0.77 0.80 0.70 0.61 0.41 0.72 0.71 0.38 0.70 0.34 0.84 0.15 0.18 0.25 0.33 0.31 0.48 0.30 0.27 0.60 0.48 0.82 0.37 0.08 0.10 0.14 0.18 0.29 0.55 0.25 0.30 0.45 0.45 0.34 0.38 0.84 0.76 0.58 0.59 0.61 0.40 0.17 0.26 0.38 0.30 0.36 0.48 1.02 0.44 0.42 0.41 0.30 0.29 0.34 0.37 0.35 0.44 0.47 0.46 0.88 1.11 1.27
0.25 0.27 0.64 0.32 0.50 0.28 0.22 0.19 0.36 0.63 0.26 0.30 0.30 0.28 0.17 0.28 0.08 0.26 0.34 0.39 0.37 0.54 0.61 0.52 1.18 0.53 0.36 0.63 0.66 0.73 0.55 0.73 0.38 0.61 0.65 0.71 0.39 0.29 0.23 0.22 0.56 0.39 0.26 0.19 0.32 0.32 0.42 0.86 0.58 0.14 0.16 0.24 0.37 0.47 0.87 0.58 0.38 0.28 0.32 0.41 0.36 0.52 0.64 0.75 0.58 0.45 0.38 0.73 0.31 0.50 0.28 0.79 0.47 1.05 0.64 0.41 0.26 0.36 0.28 0.30 0.42 0.42 0.56 0.75 0.59 0.69 0.84 1.40
0.30 0.50 0.76 0.55 0.47 0.30 0.12 0.06 0.39 0.45 0.46 0.32 0.38 0.43 0.18 0.37 0.07 0.13 0.25 0.40 0.66 0.58 0.74 0.41 0.52 0.86 0.44 0.59 0.72 1.08 0.83 0.36 0.49 0.77 0.46 0.93 0.46 0.09 0.24 0.36 0.81 0.44 0.16 0.06 0.18 0.09 0.57 0.49 0.91 0.33 0.14 0.26 0.83 0.49 0.75 0.63 0.87 0.88 0.63 0.54 0.56 0.53 0.61 0.36 0.73 0.46 0.65 0.83 0.66 0.58 0.46 0.81 1.03 0.58 0.44 0.57 0.35 0.31 0.28 0.59 0.82 0.77 1.13 1.41 1.55 1.55 1.57 1.58
0.22 0.74 0.79 0.30 0.23 0.34 0.05 0.32 0.58 0.39 0.29 0.36 0.19 0.38 0.22 0.23 0.14 0.22 0.17 0.20 0.32 0.31 0.40 0.35 0.48 0.74 0.70 0.61 0.71 0.81 1.00 0.65 0.51 0.70 0.34 0.40 0.51 0.78 0.23 0.71 0.71 0.56 0.07 0.34 0.06 0.36 0.65 0.57 0.65 0.43 0.48 0.50 0.53 0.40 0.45 0.44 0.69 0.71 0.73 0.78 0.67 1.02 1.20 1.11 0.97 0.20 0.48 0.65 0.67 0.59 0.78 1.02 1.09 0.42 0.47 0.54 0.69 0.44 0.40 0.59 0.74 0.86 0.48 0.51 0.64 0.44 0.45 0.80
0.34 0.75 1.42 0.60 0.56 0.23 0.23 0.42 0.26 0.37 0.34 0.29 0.48 0.44 0.56 0.21 0.22 0.21 0.16 0.18 0.25 0.39 0.28 0.27 0.27 0.53 0.50 0.91 1.13 0.93 1.25 0.80 0.31 0.38 0.29 0.73 0.56 0.59 0.39 0.44 0.60 0.57 0.20 0.29 0.25 0.35 0.47 0.67 0.45 0.46 0.37 0.86 0.68 0.35 0.34 0.44 0.53 0.69 0.79 0.96 0.75 1.01 1.20 1.56 1.46 1.10 0.66 0.67 0.46 0.68 0.94 1.32 0.75 0.65 0.79 0.90 0.99 0.53 0.65 0.59 0.82 0.72 0.90 1.21 0.58 0.49 0.54 0.85
0.40 0.93 0.95 0.82 1.16 1.02 0.57 0.45 0.31 0.41 0.37 0.27 0.24 0.28 0.43 0.27 0.20 0.17 0.26 0.19 0.31 0.21 0.25 0.25 0.38 0.52 0.54 1.01 1.27 1.49 1.45 1.31 0.40 0.58 0.37 0.27 0.39 0.26 0.30 0.50 0.29 0.34 0.13 0.54 0.08 0.30 0.44 0.61 0.61 0.42 0.50 0.47 0.49 0.42 0.56 0.41 0.65 1.05 1.11 0.96 1.27 1.45 1.28 1.54 1.30 1.05 1.04 0.64 0.80 0.82 0.89 1.19 0.80 0.99 1.05 1.16 0.96 0.83 1.05 1.21 0.86 0.56 0.55 0.56 0.56 0.72 0.72 0.66
0.57 1.35 0.97 1.09 1.15 1.21 0.70 0.64 0.51 0.24 0.28 0.37 0.19 0.19 0.16 0.50 0.37 0.37 0.33 0.31 0.41 0.29 0.20 0.22 0.36 0.63 0.68 0.66 1.05 1.79 1.47 2.05 0.53 0.24 0.43 0.16 0.63 0.04 0.28 0.34 0.24 0.34 0.28 0.69 0.49 0.88 1.34 1.05 0.97 1.11 0.84 1.18 1.32 0.95 0.87 0.81 0.86 1.54 1.42 1.20 1.22 1.14 1.15 1.17 0.89 0.96 1.38 0.81 0.90 1.34 1.29 0.91 0.96 0.88 0.78 1.00 1.19 1.36 1.18 0.87 0.91 0.76 0.56 0.68 0.75 0.76 0.65 0.93
0.92 1.05 1.22 1.29 0.88 1.27 0.91 0.45 0.40 0.20 0.31 0.17 0.20 0.27 0.31 0.28 0.36 0.42 0.31 0.43 0.25 0.35 0.23 0.14 0.17 0.46 0.52 0.60 0.81 0.76 0.89 1.61 1.31 0.39 0.64 0.28 0.72 0.04 0.07 0.08 0.15 0.57 0.18 0.32 0.31 0.56 0.66 0.94 1.19 1.68 1.92 1.75 2.06 1.99 1.93 1.98 1.43 1.60 1.43 1.18 1.15 1.42 1.76 1.79 1.63 1.12 1.38 0.73 0.58 1.66 2.04 1.48 1.42 1.08 1.25 1.14 0.72 0.89 1.03 1.03 1.38 1.18 0.96 1.27 1.82 1.96 1.80 1.10
1.12 1.38 0.95 1.39 1.28 0.59 0.51 0.30 0.49 0.62 0.48 0.39 0.32 0.35 0.28 0.52 0.36 0.36 0.28 0.52 0.33 0.28 0.15 0.08 0.25 0.52 0.68 0.70 0.80 0.99 0.76 0.53 1.03 0.72 0.34 0.98 0.57 0.10 0.09 0.10 0.18 0.31 0.49 0.33 0.36 0.28 0.81 0.50 0.93 1.48 1.76 2.12 1.66 1.57 1.31 1.04 1.87 2.00 1.69 1.31 1.39 1.46 1.69 1.78 1.71 1.81 1.77 0.95 0.93 1.49 1.67 1.62 1.66 1.20 1.03 1.22 1.00 1.11 1.21 1.17 1.04 0.96 0.96 1.56 1.61 1.36 1.34 1.27
0.73 1.17 1.04 1.01 0.71 1.10 0.69 0.50 0.49 0.53 0.94 0.95 0.84 0.61 0.61 0.49 0.61 0.62 0.37 0.64 0.37 0.31 0.14 0.22 0.26 0.62 0.61 1.09 1.26 1.28 0.52 0.54 0.41 0.34 0.61 0.39 0.65 0.57 0.06 0.18 0.21 0.40 0.59 0.22 0.20 0.28 0.58 0.69 0.77 0.91 1.10 1.11 1.11 1.25 1.02 1.10 2.06 1.91 1.79 1.76 1.58 1.61 1.73 1.98 2.30 2.60 1.56 2.21 2.06 1.62 1.43 1.53 1.43 1.36 1.14 1.16 1.23 1.28 0.97 0.98 0.81 0.67 1.05 0.64 0.92 0.85 0.91 1.02
0.89 1.17 1.12 1.63 1.37 0.90 0.80 0.73 0.46 1.24 0.70 0.87 0.86 0.37 0.53 0.51 0.58 1.15 0.68 0.52 0.46 0.41 0.31 0.08 0.35 0.42 0.46 1.09 1.61 1.40 0.97 0.68 0.31 0.41 0.48 0.31 0.60 1.13 0.41 0.24 0.47 0.56 0.45 0.36 0.24 0.46 1.12 0.66 0.56 0.74 1.01 0.75 1.04 1.01 1.14 1.15 1.39 1.73 1.98 2.26 2.30 2.17 2.40 2.73 2.24 1.61 2.13 2.85 2.61 1.81 1.44 1.43 1.34 1.29 1.07 0.94 1.18 1.48 1.03 1.15 0.99 0.88 0.91 0.90 1.23 1.32 1.12 0.90
0.93 1.17 1.29 1.21 1.50 0.69 0.63 0.92 0.65 0.61 0.70 0.71 0.68 0.52 0.52 0.69 0.66 0.93 1.58 0.86 0.59 0.50 0.39 0.33 0.35 0.25 0.48 1.00 1.34 1.82 1.56 1.92 1.15 0.84 0.39 0.66 0.56 0.59 0.76 0.63 0.75 0.59 0.33 0.31 0.47 0.35 0.57 1.11 0.70 0.65 0.97 1.03 0.83 0.71 0.75 0.80 1.16 1.53 1.84 1.96 2.25 2.53 2.69 2.47 2.29 1.93 2.17 2.45 1.67 1.65 1.63 1.76 1.18 1.58 1.14 1.31 1.36 1.55 1.63 1.11 0.95 1.11 1.89 0.74 0.98 1.23 0.71 0.82
1.48 2.02 1.46 0.73 1.08 0.79 0.46 0.60 0.80 0.68 0.59 0.49 0.60 0.52 0.57 0.58 1.00 0.78 1.09 1.14 0.81 0.74 0.38 0.54 0.44 0.28 0.46 0.51 0.92 1.77 1.71 1.91 1.84 1.72 0.49 0.31 0.44 0.36 0.74 0.88 1.03 0.92 0.81 0.75 0.50 0.54 0.61 1.24 0.26 0.81 0.97 0.98 0.87 0.72 0.81 1.04 1.48 1.89 2.08 2.12 2.40 2.69 2.94 2.74 2.54 2.60 2.95 3.04 2.75 1.85 1.94 2.42 1.95 1.60 1.75 1.17 1.34 1.70 1.60 2.72 1.95 1.41 1.35 1.04 0.99 1.08 0.97 0.67
1.33 1.34 1.95 1.78 0.87 0.67 0.62 0.40 0.45 0.61 0.83 0.68 0.61 0.52 0.62 0.66 1.08 1.17 1.36 0.98 0.91 0.55 0.56 0.53 0.24 0.29 0.35 0.47 0.59 1.26 1.36 1.06 0.92 1.28 0.46 0.29 0.74 0.43 0.60 0.61 0.26 0.74 0.47 0.96 0.87 2.11 0.78 1.59 0.65 1.06 0.90 1.09 0.97 0.94 1.14 1.11 1.75 2.31 2.86 3.17 3.36 3.39 3.81 3.44 3.53 3.81 4.11 3.66 2.56 2.10 1.94 2.63 3.14 2.47 2.10 3.18 2.26 1.80 2.20 2.55 2.03 1.76 1.61 1.29 1.13 1.25 1.10 0.93
0.84 0.77 1.48 1.72 1.17 0.31 0.67 0.27 0.34 0.45 0.59 0.73 0.98 0.82 0.98 0.84 0.74 1.11 0.89 0.66 0.98 0.74 0.48 0.35 0.46 0.66 0.52 0.62 0.95 1.42 1.31 1.13 1.12 0.69 0.24 0.17 0.22 0.26 0.18 0.22 0.20 0.51 0.80 0.80 0.94 1.26 1.31 1.18 0.80 1.04 0.95 0.61 0.84 0.91 1.22 1.68 2.21 2.83 3.33 3.25 3.14 3.27 3.35 3.41 3.16 3.75 4.17 4.67 4.02 3.46 3.22 2.50 2.57 1.50 2.00 2.81 2.69 2.90 2.79 2.35 1.80 1.75 2.01 1.82 1.75 1.81 1.35 1.08